Flag Weather past 2 weeks in Ittoqqortoormiit, Greenland

Now
25 °F

Overcast.


Feels Like: 7 °F
Forecast: 16 / 20 °F
Wind: 36 mph from Northeast

Location: Scoresbysund

Current Time: Nov 1, 2014 at 1:03:27 PM

Latest Report: Nov 1, 2014 at 12:00 PM


Visibility: 19 mi

Pressure: 29.82 "Hg

Humidity: 47%

Dew point: 8 °F

Location of IttoqqortoormiitLocation

Historic Weather in Ittoqqortoormiit — Graph

°F

Ittoqqortoormiit temperature yesterday

Maximum temperature yesterday: 27 °F (at 7:00 PM)
Minimum temperature yesterday: 8 °F (at 3:00 AM)
Average temperature yesterday: 17 °F

Past Weeks' High & Low Weather Summary

 TemperatureHumidityPressure
High33 °F (Oct 27, 12:00 AM)100% (Oct 26, 3:00 AM)30.24 "Hg (Oct 26, 3:00 AM)
Low8 °F (Oct 31, 3:00 AM)34% (Oct 31, 8:00 PM)29.12 "Hg (Oct 25, 11:00 PM)
Average23 °F74%29.68 "Hg
* Reported Oct 17 12:00 Noon — Nov 1 11:00 AM, Ittoqqortoormiit, Weather by CustomWeather, © 2014

Note: Actual official high and low records may vary slightly from our data, if they occured in-between our weather recording intervals... More about our weather records

Advertising

Ittoqqortoormiit weather history for previous 24 hours

 ConditionsComfort  
Time TempWeatherWind HumidityBarometerVisibility
11:00 AM
Nov 1
25 °FOvercast.18 mph46%29.85 "Hg31 mi
10:00 AM26 °FOvercast.22 mph45%29.85 "Hg31 mi
9:00 AM26 °FOvercast.29 mph44%29.84 "Hg31 mi
8:00 AM25 °FSnow flurries. Overcast.44 mph52%29.81 "Hg6 mi
7:00 AM25 °FSnow flurries. Overcast.44 mph64%29.85 "Hg3 mi
6:00 AM25 °FOvercast.32 mph66%29.88 "Hg19 mi
5:00 AM25 °FOvercast.24 mph61%29.93 "Hg31 mi
4:00 AM25 °FOvercast.20 mph49%29.95 "Hg31 mi
3:00 AM26 °FPassing clouds.17 mph41%29.98 "Hg31 mi
2:00 AM25 °FOvercast.30 mph42%29.96 "Hg31 mi
1:00 AM25 °FOvercast.24 mph41%30.03 "Hg31 mi
12:00 AM26 °FOvercast.26 mph40%30.05 "Hg31 mi
11:00 PM
Oct 31
26 °FOvercast.9 mph39%30.10 "Hg31 mi
10:00 PM26 °FOvercast.8 mph36%30.12 "Hg31 mi
9:00 PM26 °FClear.31 mph37%30.10 "Hg31 mi
8:00 PM27 °FOvercast.12 mph34%30.16 "Hg31 mi
7:00 PM27 °FClear.16 mph36%30.16 "Hg31 mi
6:00 PM17 °FClear.3 mph57%30.19 "Hg31 mi
5:00 PM13 °FClear.2 mph73%30.21 "Hg31 mi
4:00 PM18 °FClear.2 mph50%30.21 "Hg31 mi
3:00 PM21 °FClear.17 mph47%30.19 "Hg28 mi
2:00 PM16 °FSunny.2 mph56%30.23 "Hg31 mi
1:00 PM16 °FSunny.2 mph56%30.22 "Hg31 mi
Weather by CustomWeather, © 2014

See weather overviewHow to use our weather pages